Theta_e
310 310 310 309 309 309 309 310 310 310 310 311 311 312 312 313 313 314 316 314 313 313 313 312 312 313 316 318 316 315 319 319 319 319 320 319 319 317 317 318 317 315 315 314 314
311 310 310 310 309 309 309 310 310 310 311 311 312 312 313 313 314 315 315 315 313 313 312 314 315 315 317 319 319 319 319 318 317 318 319 319 319 318 317 317 317 315 313 313 313
311 311 310 310 309 309 309 309 310 310 311 312 312 312 313 314 317 317 314 313 312 312 312 312 314 316 317 317 319 318 318 316 315 317 318 319 318 317 317 318 316 317 314 311 312
311 311 311 310 309 309 309 309 310 310 311 312 312 312 314 316 319 316 312 311 311 311 311 313 316 317 318 318 318 318 317 316 317 316 317 318 317 317 317 316 312 312 311 310 311
311 311 311 310 309 309 309 309 310 311 311 312 312 313 316 319 320 319 319 313 311 311 313 315 316 318 319 317 317 318 318 317 317 316 316 316 317 317 316 312 310 310 310 309 310
311 311 310 309 309 308 308 309 310 311 311 311 312 314 318 319 318 318 318 318 314 311 312 313 316 316 316 316 317 317 317 317 316 316 316 315 317 314 313 311 310 309 308 308 309
308 308 308 308 308 308 308 309 310 311 311 311 313 317 319 319 318 318 317 317 316 313 314 314 314 314 316 317 315 316 317 319 318 317 316 314 316 315 312 310 310 309 308 308 308
309 308 307 307 308 308 309 310 310 311 311 312 315 318 319 319 318 318 317 316 316 316 315 314 313 315 316 315 315 317 318 321 320 315 314 315 321 316 310 310 312 310 309 307 307
316 315 313 311 309 309 310 310 311 311 313 315 317 318 320 319 317 317 317 315 315 314 314 312 313 316 314 317 319 319 321 322 321 315 316 316 321 314 310 311 313 311 309 307 306
319 317 316 316 316 313 311 311 312 313 315 317 318 318 318 316 316 316 316 315 314 313 313 314 314 316 316 319 322 322 322 321 320 318 315 317 317 314 311 311 312 311 309 307 306
325 324 320 317 317 316 316 316 317 320 317 319 320 320 316 317 315 314 315 314 313 314 316 315 317 318 319 318 320 320 320 321 321 316 315 318 318 319 312 310 312 310 309 307 305
323 323 324 321 318 317 316 317 320 318 319 319 318 318 317 315 312 312 314 314 314 317 316 315 317 318 319 318 319 319 319 319 319 315 314 317 318 318 316 312 311 311 309 307 304
321 321 321 323 320 318 317 316 316 318 319 319 319 319 318 316 315 313 313 314 315 317 316 319 319 316 317 316 317 317 318 319 319 316 314 316 318 318 318 312 309 309 308 306 304
321 321 322 323 319 319 317 316 316 317 319 320 319 320 318 316 316 316 314 313 312 316 316 316 317 314 315 316 315 318 318 316 317 316 320 317 322 322 319 311 308 307 306 305 304
320 321 322 321 320 319 321 318 316 315 325 321 318 315 314 317 315 311 312 311 316 314 314 317 313 313 315 316 315 317 315 315 316 317 318 320 318 321 317 313 310 307 305 304 303
320 319 320 320 320 320 320 316 317 319 324 320 315 316 315 316 311 309 309 310 311 315 314 315 312 314 315 314 314 314 314 314 315 317 322 321 321 322 319 314 313 308 305 304 303
319 319 318 318 319 319 318 316 319 321 320 320 317 316 318 317 313 311 311 311 315 316 317 316 315 314 313 314 312 314 317 323 323 320 323 317 322 321 320 313 314 308 305 304 302
308 309 314 316 316 320 317 319 317 321 322 315 316 317 319 318 316 312 312 314 313 316 319 320 321 317 313 317 319 314 318 325 328 327 324 311 318 319 313 311 309 308 305 304 301
308 309 311 313 315 319 318 320 320 321 321 320 315 318 320 316 317 315 316 317 316 315 318 322 323 314 314 315 317 317 318 319 319 312 318 318 315 315 308 306 306 307 305 304 301
311 312 311 312 312 318 319 318 317 318 319 319 320 318 321 319 317 317 318 318 318 316 317 320 323 313 310 309 311 315 315 317 317 324 325 322 320 319 311 309 306 307 305 303 301
314 313 313 313 313 315 317 317 317 317 318 319 321 320 320 320 318 317 320 318 317 317 314 318 318 314 309 311 315 312 314 316 317 320 327 326 321 316 317 312 308 307 305 303 301
314 314 313 313 316 313 313 315 315 318 318 318 318 320 320 319 318 319 319 320 315 315 315 317 318 322 319 313 312 315 315 316 318 319 317 320 321 308 313 313 309 307 305 303 302
313 312 312 313 316 314 314 314 315 316 318 318 318 318 319 320 317 316 319 318 315 314 317 315 316 321 320 314 309 310 312 314 316 317 321 322 322 308 308 310 310 308 305 304 303
311 313 312 314 314 314 315 316 317 316 317 317 318 318 319 319 317 319 317 313 311 313 314 314 316 320 325 322 316 313 312 312 314 318 319 319 319 309 309 309 308 308 306 304 303
308 312 312 313 312 314 314 315 315 315 316 317 317 318 319 320 319 319 317 317 309 309 311 315 315 317 318 319 318 315 314 313 313 314 318 318 318 318 311 310 308 307 306 304 303
306 310 310 312 312 313 314 315 315 315 315 316 318 318 318 319 318 319 317 316 315 309 309 311 315 315 317 317 318 319 315 315 313 313 314 316 317 318 314 310 308 307 305 304 303
304 306 305 308 312 313 313 312 312 314 313 313 312 314 317 317 316 313 311 310 310 311 309 309 311 314 318 316 316 312 313 314 315 314 315 315 315 307 308 307 307 306 305 304 303
Wind_Speed
4 3 2 2 3 3 3 4 4 4 4 5 6 7 8 9 10 9 6 7 6 6 5 3 2 2 2 1 2 1 4 5 4 6 5 6 7 4 1 3 3 1 1 2 5
6 5 4 4 5 5 5 5 5 6 6 7 8 8 9 10 11 11 9 8 7 5 4 3 2 1 2 0 1 4 4 3 2 1 4 8 5 5 5 8 6 4 1 3 5
8 7 7 7 7 6 7 7 7 7 8 8 9 10 10 11 10 3 3 4 4 5 6 6 5 1 3 2 2 1 4 2 2 1 1 4 5 3 6 7 4 2 1 2 0
11 10 9 9 9 9 8 8 9 8 9 10 10 10 9 8 4 2 1 1 3 6 8 5 2 3 3 4 2 6 2 2 1 2 3 5 2 5 6 2 3 3 3 2 1
13 13 12 11 11 11 10 10 10 10 10 11 11 11 9 4 7 9 7 4 5 6 6 3 4 4 7 3 3 6 2 3 5 5 6 4 9 9 6 4 4 3 4 3 2
15 15 15 14 13 13 12 12 12 12 12 12 11 10 8 9 10 10 9 9 9 8 8 6 4 4 4 4 6 2 4 6 7 11 8 8 11 4 7 7 6 5 3 3 3
15 15 16 15 15 15 14 13 13 14 13 13 11 11 12 14 11 10 9 10 10 11 6 9 6 4 2 3 3 3 7 9 13 14 8 9 10 12 10 11 8 6 4 3 4
15 14 15 16 16 16 16 15 14 14 14 13 12 10 9 14 15 16 16 12 11 11 11 9 8 4 4 3 3 5 5 8 8 9 5 10 12 10 11 12 10 7 6 5 7
14 15 15 17 18 18 17 17 16 15 14 13 11 6 9 13 13 17 15 9 11 10 9 8 7 5 5 7 8 8 10 11 5 10 5 12 3 11 11 14 12 10 8 6 5
14 14 14 15 17 19 18 16 16 16 15 13 13 6 15 8 9 12 15 11 6 8 5 6 7 8 8 10 10 11 13 10 11 7 9 11 14 9 12 14 14 11 9 8 7
17 16 15 15 15 16 15 12 9 7 14 13 5 5 3 11 9 9 15 13 7 8 8 11 9 15 19 17 18 11 12 14 11 4 4 14 16 12 17 15 15 13 11 10 8
21 19 17 17 16 16 14 8 9 6 10 16 23 18 13 10 5 12 16 12 11 13 14 4 16 19 15 10 16 16 16 17 15 4 4 13 19 16 16 21 20 17 15 13 11
21 21 19 20 19 20 18 15 14 9 9 15 20 20 19 25 14 17 24 12 10 14 16 18 8 7 13 10 12 16 18 15 16 1 11 13 21 23 21 14 13 16 16 15 15
21 18 17 20 20 21 21 17 13 1 7 13 10 10 18 15 12 19 27 12 8 14 13 16 21 7 10 16 14 17 15 15 14 8 10 4 11 10 15 14 16 20 20 19 18
24 21 18 20 20 20 20 17 14 6 8 6 7 5 9 19 6 8 23 14 17 10 8 6 8 12 17 16 13 8 2 7 11 13 16 18 9 8 5 14 19 23 24 23 22
28 22 23 24 29 24 21 14 22 4 13 6 6 7 8 16 2 5 11 8 5 13 15 17 3 10 11 2 10 10 6 2 3 8 13 18 17 14 13 14 16 23 26 26 24
37 32 28 26 29 33 21 27 5 7 6 11 7 10 14 10 7 8 14 14 12 9 19 18 18 6 6 6 4 13 8 4 5 6 8 2 14 17 5 6 11 24 32 31 28
29 30 31 30 27 27 28 10 9 17 25 8 4 9 12 13 8 9 11 12 21 17 9 15 10 24 18 24 12 17 18 7 7 8 7 2 10 7 2 10 6 24 31 31 30
24 28 30 31 28 32 28 14 11 10 15 20 7 8 11 8 6 12 15 11 12 22 14 10 10 2 8 11 16 10 15 15 5 2 4 7 8 5 7 7 9 25 31 33 33
19 24 38 37 33 32 15 14 11 14 4 12 21 16 17 14 12 15 15 12 15 23 21 2 7 4 5 3 8 8 10 7 7 6 8 9 13 10 11 15 15 20 29 31 31
20 12 16 30 28 21 8 7 17 26 11 7 20 15 20 14 18 13 10 7 19 16 23 9 4 4 6 12 18 7 10 10 8 9 4 4 7 10 14 18 22 20 31 35 36
23 7 15 28 17 8 11 5 12 12 28 11 14 18 20 10 12 17 19 18 22 16 15 12 3 8 18 4 14 20 15 21 7 6 9 7 10 2 2 13 21 25 30 33 37
16 21 18 30 10 14 12 21 24 18 14 13 13 16 16 19 8 22 24 17 18 16 17 12 5 3 4 7 4 10 15 17 20 1 16 8 8 2 4 7 19 23 28 32 33
7 5 18 27 26 18 17 22 10 16 19 24 14 24 16 18 12 11 14 5 16 18 16 18 6 10 17 6 11 11 19 22 16 10 23 19 12 4 9 12 16 21 25 31 35
8 7 13 6 16 20 14 5 21 21 20 27 12 21 20 12 17 21 19 15 0 8 6 14 10 18 25 24 11 9 16 24 25 34 17 35 23 13 15 15 22 24 23 27 31
6 7 7 21 22 24 21 18 19 13 3 4 15 18 19 17 19 11 21 14 13 7 8 4 8 13 20 25 24 22 12 25 32 33 31 33 25 10 19 16 17 24 26 29 32
13 18 5 8 20 14 20 24 29 22 22 27 6 8 14 20 17 7 6 1 2 9 15 9 7 7 15 12 17 7 31 21 25 30 22 28 31 4 5 8 16 20 25 29 33
Wind_Direction
191 199 219 244 255 273 285 296 303 308 311 315 318 321 322 320 318 315 311 275 266 262 242 230 271 300 59 28 39 349 247 234 217 226 206 171 193 177 219 203 141 84 98 236 277
232 232 240 245 261 271 280 288 296 301 305 310 315 319 321 323 319 311 292 273 257 241 199 185 210 171 202 231 292 266 267 307 4 241 210 178 231 173 219 190 184 111 18 298 302
248 258 264 267 267 270 277 281 287 295 301 307 313 318 323 329 329 260 294 259 225 204 189 173 161 242 257 248 203 190 277 65 178 172 198 200 225 225 248 237 45 240 160 312 238
253 257 261 267 274 276 277 280 285 290 296 301 307 313 319 329 316 306 307 186 160 157 150 160 210 255 276 250 209 251 217 245 176 189 199 225 265 247 253 54 161 183 208 176 157
262 264 265 266 267 272 275 279 283 288 293 297 304 308 317 288 264 272 268 249 216 193 183 209 254 275 257 242 232 245 225 215 205 186 220 259 249 264 216 182 182 206 175 177 200
261 265 267 266 267 268 271 274 278 282 286 291 296 300 301 265 264 267 257 244 230 216 220 219 270 248 279 247 243 13 268 252 232 228 230 226 243 203 203 185 177 169 161 200 228
254 262 266 266 265 266 268 271 276 280 283 284 289 294 281 261 262 263 249 240 232 224 227 235 236 215 197 230 235 281 281 258 238 228 232 217 240 226 163 168 174 181 191 231 267
246 253 262 266 267 267 267 269 272 275 279 281 284 293 263 261 255 251 245 236 230 229 228 234 216 206 235 156 206 251 252 260 112 172 184 195 266 158 181 183 193 204 217 238 265
244 249 256 263 267 267 269 271 272 272 273 277 283 266 265 257 246 240 230 227 224 224 219 209 179 222 181 223 246 211 264 228 230 196 160 204 238 167 195 204 211 213 216 225 235
242 248 253 260 265 266 267 268 273 275 270 271 256 266 241 241 235 226 218 203 184 178 151 177 201 222 223 219 234 257 227 256 252 164 216 216 251 173 197 209 214 215 213 211 210
245 247 253 259 264 264 264 270 283 275 233 213 231 223 199 220 218 208 199 182 161 191 210 203 218 222 227 228 251 280 284 263 267 104 263 243 253 232 202 213 220 218 214 208 199
247 247 253 256 258 259 251 217 244 251 289 254 241 237 233 208 184 200 182 177 190 209 208 188 230 240 246 272 239 246 254 257 268 156 249 268 264 257 205 216 220 220 211 200 188
249 256 246 254 249 247 246 236 243 267 263 254 232 227 220 221 217 199 184 196 207 217 204 228 237 241 223 222 226 238 246 253 258 339 241 272 269 252 237 215 218 222 209 197 185
251 248 241 247 235 243 240 241 229 232 270 241 203 224 198 195 228 220 203 186 204 228 207 250 244 196 200 229 216 248 234 249 262 253 262 170 282 273 211 210 214 211 200 190 178
242 241 237 247 228 216 247 234 189 169 269 66 133 188 170 182 144 177 188 201 223 197 173 214 183 203 223 226 203 252 71 225 243 254 270 254 267 273 192 221 212 205 199 188 180
247 247 239 255 238 235 243 195 163 173 232 184 139 163 156 198 131 106 173 192 218 245 227 260 30 219 221 186 200 132 118 111 255 260 256 240 230 259 210 227 202 193 193 184 178
245 249 237 239 235 233 210 160 185 196 179 209 179 180 191 178 180 182 181 188 190 191 228 228 223 195 174 153 160 197 183 246 241 210 256 314 215 249 199 186 205 184 186 183 179
248 244 238 235 241 243 187 183 215 229 216 83 131 171 192 166 210 181 179 210 218 225 287 214 227 202 201 215 199 200 200 200 241 236 267 24 236 240 313 121 163 184 183 181 181
253 243 235 235 228 227 190 206 218 214 210 218 144 200 204 193 226 193 216 225 210 209 205 207 241 261 182 223 215 179 224 229 312 146 274 216 250 242 165 179 180 176 180 183 183
242 233 239 242 230 217 210 212 233 225 331 215 217 201 216 192 195 192 194 220 222 202 210 241 265 161 154 187 262 222 172 184 212 226 237 242 241 236 209 197 185 182 186 184 184
224 226 245 225 215 208 237 234 234 233 232 232 222 238 229 218 203 197 226 201 203 197 194 223 219 143 143 202 190 185 212 220 215 224 250 279 246 194 201 190 188 187 186 185 187
215 221 219 194 193 207 226 218 247 244 224 236 258 257 245 229 213 230 229 230 195 157 179 196 173 235 230 214 235 223 215 206 208 196 232 274 257 102 106 183 180 185 188 190 191
222 221 209 198 217 211 220 227 233 247 221 213 218 229 234 240 226 231 237 239 196 183 173 160 194 202 251 213 189 226 216 228 230 310 231 203 249 101 129 159 182 185 187 190 190
253 212 212 209 229 221 212 227 224 218 238 226 233 227 231 239 218 251 229 206 199 208 216 158 157 207 229 229 153 201 207 208 217 228 240 235 250 177 206 187 181 186 188 187 188
232 225 208 205 220 225 235 220 229 233 237 216 230 229 216 225 225 233 236 250 61 230 187 175 220 218 243 255 251 199 204 203 207 226 214 245 237 219 202 195 193 182 178 185 190
255 252 254 241 214 217 222 221 238 244 179 261 224 212 219 221 216 244 229 220 208 181 197 195 233 224 249 246 244 252 244 215 215 228 230 246 250 237 199 192 167 178 178 187 193
238 246 269 258 227 206 213 222 230 231 243 241 232 295 237 230 245 250 151 212 144 197 188 186 211 209 246 239 252 257 231 233 233 227 228 236 243 107 122 176 192 182 184 194 201